Regional Weather Roundup
Issued by NWS

Home | Current Version | Previous Version | Text Only | Print | Product List | Glossary On
Versions: 1 2 3 4 5 6 7 8 9 10 11 12 13 14 15 16 17 18 19 20 21 22 23 24 25 26 27 28 29 30 31 32 33 34 35 36 37 38 39 40 41 42 43 44 45 46 47 48 49 50
000
ASUS43 KMKX 241059
RWRWI

WISCONSIN REGIONAL WEATHER ROUNDUP
NATIONAL WEATHER SERVICE MILWAUKEE/SULLIVAN WI
600 AM CDT THU JUL 24 2014

NOTE: "FAIR" INDICATES FEW OR NO CLOUDS BELOW 12,000 FEET WITH NO
SIGNIFICANT WEATHER AND/OR OBSTRUCTIONS TO VISIBILITY.

WIZ001-002-006>008-014>016-023>028-241200-
NORTHWEST WISCONSIN

CITY           SKY/WX    TMP DP  RH WIND       PRES   REMARKS
SUPERIOR ARPT  FOG       51  51 100 CALM      30.19S VSB 1/4
ASHLAND        PTCLDY    50  49  96 SW3       30.20S
HAYWARD        CLOUDY    55  53  93 CALM      30.19F
SIREN          CLOUDY    59  56  92 CALM      30.18S
RICE LAKE      CLOUDY    57  54  89 CALM      30.20F
LADYSMITH      CLOUDY    55  52  90 CALM      30.22R
EAU CLAIRE     MOCLDY    54  54 100 NE3       30.18S
MENOMONIE      MOSUNNY   56  55  95 CALM      30.18F
NEW RICHMOND   CLOUDY    59  56  89 SE3       30.18F
OSCEOLA        PTCLDY    55  55 100 CALM      30.20S
$$

WIZ003>005-009-010-017-018-241200-
NORTH CENTRAL WISCONSIN

CITY           SKY/WX    TMP DP  RH WIND       PRES   REMARKS
WOODRUFF       PTCLDY    46  40  79 CALM      30.22R
RHINELANDER    CLEAR     49  48  97 SW3       30.22S
EAGLE RIVER    PTCLDY    42  42 100 CALM      30.21S FOG
LAND O LAKES   CLEAR     40  40 100 CALM      30.23R
PHILLIPS       CLOUDY    51  50  96 CALM      30.21S
TOMAHAWK       PTCLDY    40  40  97 CALM      30.22R FOG
MEDFORD        CLEAR     50  49  96 CALM      30.20S
MERRILL        PTCLDY    44  44 100 CALM      30.22R
$$

WIZ029-030-035-036-043>047-241200-
CENTRAL WISCONSIN

CITY           SKY/WX    TMP DP  RH WIND       PRES   REMARKS
WAUSAU         PTCLDY    52  51  97 E5        30.20S
MOSINEE        CLEAR     52  52 100 VRB3      30.22S
MARSHFIELD     CLEAR     54  51  90 S5        30.20S
STEVENS POINT  PTCLDY    48  47  97 CALM      30.21S
WAUPACA        PTCLDY    54  52  94 CALM      30.21S
WAUTOMA        NOT AVBL
WISC RAPIDS    CLEAR     52  50  93 CALM      30.22S
CAMP DOUGLAS   FOG       52  52 100 N1        30.20S VSB 1/4
$$

WIZ011>013-019>022-031-037>040-048>050-241200-
NORTHEAST WISCONSIN

CITY           SKY/WX    TMP DP  RH WIND       PRES   REMARKS
ANTIGO         CLEAR     46  45  98 CALM      30.22S
STURGEON BAY   CLEAR     46  43  87 CALM      30.20R
GREEN BAY      CLEAR     52  50  93 CALM      30.20S
MANITOWOC      NOT AVBL
APPLETON       PTCLDY    52  46  82 N6        30.21S
CLINTONVILLE   PTCLDY    50  46  87 CALM      30.21S
OSHKOSH        MOCLDY    55  50  83 CALM      30.20R
$$

WIZ032>034-041-042-053>061-241200-
SOUTHWEST WISCONSIN

CITY           SKY/WX    TMP DP  RH WIND       PRES   REMARKS
LA CROSSE      PTCLDY    60  57  89 E5        30.18R
SPARTA         CLEAR     48  46  95 CALM      30.20R
VIROQUA        FAIR      56  55  99 CALM      30.20R
BOSCOBEL       CLEAR     54  51  90 CALM      30.20R FOG
PRAIRIE DU CHI CLEAR     58  54  85 CALM      30.18R
PLATTEVILLE    FAIR      54  52  93 NE3       30.19S
$$

WIZ056-057-062-063-064-067-068-241200-
SOUTH CENTRAL WISCONSIN

CITY           SKY/WX    TMP DP  RH WIND       PRES   REMARKS
BARABOO/DELLS  CLEAR     52  48  87 CALM      30.20S
LONE ROCK      NOT AVBL
WATERTOWN      CLEAR     51  48  92 CALM      30.20R
MADISON        PTCLDY    52  50  93 CALM      30.19S
MIDDLETON      FAIR      52  50  94 CALM      30.20R
MONROE         CLEAR     54  50  87 NE5       30.19S
JANESVILLE     PTCLDY    52  48  87 NW5       30.18S
$$

WIZ051-052-058>065-066-070>072-241200-
SOUTHEAST WISCONSIN

CITY           SKY/WX    TMP DP  RH WIND       PRES   REMARKS
MILWAUKEE      CLEAR     55  49  80 NW3       30.18R
WAUKESHA       CLEAR     52  48  87 W8        30.20R
MILWAUKEE/TIMM CLEAR     50  45  81 CALM      30.19S
RACINE         CLEAR     55  51  86 NW7       30.19R
BURLINGTON     CLEAR     46  46 100 CALM      30.18S
KENOSHA        CLEAR     54  51  90 N7        30.18R
FOND DU LAC    PTCLDY    51  49  92 S3        30.21R
SHEBOYGAN      CLEAR     51  48  89 CALM      30.20R
WEST BEND      PTCLDY    50  46  87 CALM      30.20R
JUNEAU         MOCLDY    49  47  91 CALM      30.21S
$$

LSZ147-162-241200-
LAKE SUPERIOR

STATION/POSITION TIME  TEMP    WIND        PRES    WAVE
                       AIR SEA DIR/SP/G            HT/PER
                 (UTC) (F)     (DEG/KT/KT) (MB)    (FT/S)
$$

LMZ867-665-643>646-241200-
LAKE MICHIGAN

STATION/POSITION TIME  TEMP    WIND        PRES    WAVE
                       AIR SEA DIR/SP/G            HT/PER
                 (UTC) (F)     (DEG/KT/KT) (MB)    (FT/S)
$$

TC  - TEMPERATURE IN CELSIUS
VSB - VISIBILITY IN STATUTE MILES
WCI - WIND CHILL INDEX
HX  - HEAT INDEX




USA.gov is the U.S. government's official web portal to all federal, state and local government web resources and services.